This demonstration page uses our WeatherBlox Daily Observations layout. Learn more.

Left ArrowRight Arrow

40.97296, -117.73568

Hourly Observations for August 10, 2020

Temp ( °F °C ) Dew Point ( °F °C ) Humidity (%) Winds ( mph kmh ) Pressure ( in mb ) Visibility ( mi km ) Precip ( " mm )
12:56 am 00:56 Clear 74 23.3 29 -1.7 19 19 N 9 15 29.92 1013 10 16 0.00 0.00
1:56 am 01:56 Clear 71 21.7 32 0 24 24 NE 14 22 29.91 1013 10 16 0.00 0.00
2:56 am 02:56 Clear 70 21.1 33 0.6 26 26 NNE 9 15 29.93 1013 10 16 0.00 0.00
3:56 am 03:56 Clear 65 18.3 33 0.6 31 31 NNW 8 13 29.94 1014 10 16 0.00 0.00
4:56 am 04:56 Clear 61 16.1 33 0.6 35 35 NW 3 6 29.95 1014 10 16 0.00 0.00
5:56 am 05:56 Clear 59 15 32 0 36 36 WNW 6 9 29.96 1015 10 16 0.00 0.00
6:56 am 06:56 Sunny 64 17.8 34 1.1 33 33 NW 5 7 29.97 1015 10 16 0.00 0.00
7:56 am 07:56 Sunny 72 22.2 34 1.1 25 25 Calm 29.98 1015 10 16 0.00 0.00
8:56 am 08:56 Sunny 76 24.4 35 1.7 23 23 NNE 14 22 29.97 1015 10 16 0.00 0.00
9:56 am 09:56 Sunny 81 27.2 36 2.2 20 20 NE 14 22 29.96 1014 10 16 0.00 0.00
10:56 am 10:56 Sunny 85 29.4 34 1.1 16 16 VRB 3 6 29.94 1014 10 16 0.00 0.00
12:56 pm 12:56 Sunny 92 33.3 32 0 12 12 NNW 10 17 29.90 1012 10 16 0.00 0.00
1:56 pm 13:56 Sunny 94 34.4 32 0 11 11 VRB 7 11 29.87 1012 10 16 0.00 0.00
2:56 pm 14:56 Sunny 95 35 31 -0.6 10 10 WSW 8 13 29.84 1011 10 16 0.00 0.00
3:56 pm 15:56 Sunny 96 35.6 31 -0.6 10 10 WNW 13 20 29.83 1010 10 16 0.00 0.00
4:56 pm 16:56 Mostly Sunny 95 35 28 -2.2 9 9 NW 10 17 29.82 1010 10 16 0.00 0.00
5:56 pm 17:56 Mostly Sunny 96 35.6 27 -2.8 8 8 WNW 14 22 29.80 1009 10 16 0.00 0.00
6:56 pm 18:56 Sunny 93 33.9 25 -3.9 8 8 WNW 7 11 29.79 1009 10 16 0.00 0.00
7:56 pm 19:56 Clear 87 30.6 27 -2.8 11 11 Calm 29.79 1009 10 16 0.00 0.00
8:56 pm 20:56 Clear 77 25 29 -1.7 17 17 E 3 6 29.81 1010 10 16 0.00 0.00
9:56 pm 21:56 Clear 72 22.2 28 -2.2 19 19 Calm 29.82 1010 10 16 0.00 0.00
10:56 pm 22:56 Clear 71 21.7 28 -2.2 20 20 undefined N/A 29.83 1010 10 16 0.00 0.00
11:56 pm 23:56 Clear 72 22.2 27 -2.8 19 19 Calm 29.84 1011 10 16 0.00 0.00

Powered by AerisWeather